Temperature
14 14 15 15 13 11 12 13 13 13 14 15 15 15 15 15 16 16 16 16 16 16 15 15 15 15 15 16 16 16 16 16 16 16 16 15 15 15 15 15 15 15 15 15 15 15 15 15 15
14 14 15 14 11 12 12 12 12 13 14 15 15 15 15 14 15 15 15 15 15 15 15 15 15 15 15 15 15 15 16 16 15 15 15 15 15 15 15 15 15 15 15 14 14 14 14 15 15
13 14 14 10 11 12 13 12 12 13 14 14 14 14 14 14 14 14 15 15 15 15 15 15 15 15 15 15 15 15 15 15 15 15 15 15 15 15 15 15 15 14 14 14 14 14 14 14 14
13 13 12 10 11 11 12 12 11 12 13 13 13 13 13 13 14 14 15 15 15 15 15 15 15 15 15 15 15 15 15 15 15 15 15 15 15 15 15 15 15 14 14 14 14 14 14 14 14
13 13 10 10 11 10 10 11 12 12 12 12 12 11 12 13 13 14 14 14 14 14 14 14 14 14 14 14 14 15 15 15 15 15 14 14 14 14 14 14 14 14 14 14 14 14 14 14 14
12 10 9 10 10 10 10 11 11 11 11 11 11 11 12 13 13 13 14 14 14 14 14 14 14 14 14 14 14 14 14 14 14 14 14 14 14 14 14 14 14 14 14 14 14 14 14 13 13
10 8 9 9 9 10 10 11 11 10 10 10 11 10 12 13 13 13 13 13 14 14 14 13 13 14 14 14 14 14 14 14 14 14 14 14 14 14 14 14 14 14 14 14 14 14 13 13 13
10 7 8 8 9 10 10 10 11 10 10 11 11 10 11 12 12 12 13 13 13 13 13 13 13 13 13 13 13 13 14 14 14 14 14 14 14 14 14 14 14 14 13 13 14 13 13 13 13
10 7 8 8 8 9 9 9 10 10 10 10 10 10 11 12 12 12 12 13 13 13 13 13 13 13 13 13 13 13 13 13 13 13 13 13 13 13 13 13 13 13 13 13 13 13 13 13 13
8 7 8 8 8 8 8 9 9 9 9 9 10 10 11 11 11 11 11 12 12 12 12 12 12 12 12 12 12 13 13 13 13 13 13 13 13 13 13 13 13 13 13 13 13 13 13 12 12
7 6 7 8 8 8 8 8 8 9 8 9 9 10 10 11 11 11 11 11 11 12 12 12 12 12 12 12 12 12 12 12 12 12 12 12 12 12 12 12 12 12 12 12 12 12 12 12 12
6 6 7 8 8 8 8 8 8 8 8 9 10 10 10 10 10 10 11 11 11 11 11 11 11 11 11 12 12 12 12 12 12 12 12 12 12 12 12 12 12 12 12 12 12 12 12 12 12
6 6 7 7 8 7 7 7 7 7 8 9 9 9 9 9 10 10 10 10 11 11 11 11 11 11 11 11 11 11 12 12 12 12 12 11 12 12 12 12 12 12 12 12 12 12 12 12 11
6 6 6 7 7 7 7 6 6 7 8 8 8 9 9 9 9 9 10 10 10 10 11 11 11 11 10 11 11 11 11 11 11 11 11 11 11 11 11 11 11 11 11 11 11 11 11 11 11
6 5 6 6 6 7 7 6 6 7 7 7 8 8 8 8 9 9 9 9 9 10 10 10 10 10 10 10 10 10 11 10 10 10 11 11 11 11 11 11 11 11 11 11 11 11 11 11 11
5 5 5 6 6 6 6 6 6 7 7 6 7 7 7 8 8 8 8 9 9 9 9 9 10 10 10 10 10 10 10 10 10 10 10 10 11 11 11 11 11 11 11 11 11 11 11 10 10
4 4 5 5 6 6 6 5 6 6 6 6 6 7 7 7 8 8 8 8 8 8 8 9 9 9 9 9 9 9 10 9 9 9 10 10 10 10 10 10 10 10 10 10 10 10 10 10 10
4 4 4 4 5 5 5 4 5 6 6 5 6 6 6 7 7 7 8 8 8 8 8 8 8 9 9 9 9 9 9 9 9 9 9 10 10 10 10 10 10 10 10 10 10 10 10 10 10
4 4 4 4 4 4 4 4 5 5 5 5 5 5 6 6 6 7 7 7 7 8 8 8 8 8 8 8 8 8 8 9 9 9 9 9 9 9 10 10 10 9 10 10 10 10 9 9 9
4 4 3 4 4 4 3 4 4 4 4 5 5 5 5 6 6 7 7 7 7 7 7 7 8 8 8 8 8 8 8 8 8 8 9 9 9 9 9 9 9 9 9 9 9 9 9 9 9
4 3 3 3 3 4 3 4 4 4 5 5 5 5 5 5 5 6 6 6 6 7 7 7 7 8 8 8 7 8 7 7 8 8 8 8 8 9 9 9 9 9 9 9 9 9 9 9 8
4 4 4 3 3 3 3 4 4 4 4 4 4 4 4 5 5 5 5 6 6 6 6 7 7 7 7 7 7 7 7 7 7 8 8 8 8 8 8 8 9 9 9 9 9 8 8 8 8
3 3 3 3 2 2 3 3 4 3 4 4 4 4 4 5 5 5 5 5 5 5 6 6 6 7 7 7 7 7 7 7 7 7 7 7 7 8 8 8 8 8 8 8 8 8 8 8 8
3 3 3 2 2 2 3 3 4 3 3 3 3 4 4 4 4 4 5 5 5 5 5 6 6 6 6 6 6 6 6 7 7 7 7 7 7 7 7 7 7 7 7 8 8 7 8 7 7
2 2 2 2 2 3 3 3 3 3 3 3 3 3 4 4 4 4 4 4 5 5 5 5 5 6 6 6 6 6 6 6 6 6 6 6 6 7 7 7 7 7 7 7 7 7 7 7 7
1 2 2 3 3 2 2 2 3 3 3 3 3 3 3 3 3 4 4 4 4 4 5 5 5 5 5 5 5 5 5 5 5 6 6 6 6 6 6 6 6 6 7 7 7 7 7 6 6
1 1 1 1 0 1 2 2 2 2 2 2 2 3 3 3 3 3 3 4 4 4 4 4 4 4 5 5 5 5 5 5 5 5 5 5 5 6 6 6 6 6 6 6 6 6 6 6 6
1 0 -0 0 2 2 2 2 3 2 2 1 1 2 2 2 3 3 3 3 3 4 4 4 4 4 4 4 4 4 4 4 5 5 5 5 5 5 5 5 5 6 6 6 6 6 6 6 5
1 0 -0 -1 0 1 2 3 3 2 2 1 1 2 2 2 2 3 3 3 3 3 3 3 4 4 4 4 4 4 4 4 4 4 4 5 5 5 5 5 5 5 5 5 5 5 5 5 5
-0 -0 -1 1 0 -1 -0 2 2 1 1 1 1 2 2 2 2 2 3 3 3 3 3 3 3 3 3 3 3 3 3 3 4 4 4 4 4 4 4 4 4 4 4 4 4 5 5 4 4
Wind_Speed
10 6 2 3 4 3 4 4 2 2 2 1 1 2 4 4 3 2 1 2 3 2 4 6 8 9 9 9 10 10 10 11 11 12 12 12 11 11 11 11 10 10 10 11 11 10 10 10 10
5 2 4 4 4 3 5 4 4 3 2 1 2 1 2 0 1 1 1 1 2 2 4 5 8 9 9 9 9 9 10 10 11 11 11 11 11 11 10 10 10 10 10 10 10 9 9 9 9
2 3 3 4 4 7 5 3 4 3 1 2 2 2 1 1 1 0 1 1 3 3 3 4 8 9 8 9 9 8 9 9 10 10 11 11 11 11 10 10 9 9 9 9 8 8 8 8 9
3 4 4 3 6 5 3 1 1 1 2 2 1 1 1 1 1 1 0 3 4 3 3 3 7 8 8 8 8 8 8 8 9 10 10 10 10 10 10 9 9 9 9 8 8 8 7 8 9
3 3 3 2 5 3 2 2 1 1 1 2 1 0 2 2 3 2 2 3 4 3 4 3 7 6 7 7 6 6 7 8 9 9 10 10 10 10 9 9 9 8 8 8 7 7 7 7 8
3 3 3 5 5 2 2 2 1 1 1 2 1 0 2 2 4 2 1 2 2 3 3 3 6 6 6 5 5 5 6 7 8 9 9 10 9 10 9 8 8 8 7 7 7 6 6 6 7
3 3 4 5 3 3 2 1 2 0 1 2 1 1 2 3 4 2 2 2 2 3 3 3 4 5 5 5 4 4 5 6 7 8 9 9 9 9 9 8 8 7 7 7 6 6 6 6 7
3 3 2 2 4 4 1 1 0 1 3 1 1 3 3 4 4 3 2 3 3 3 3 2 3 3 3 4 4 4 4 5 6 7 8 8 8 9 8 8 8 7 7 6 6 6 6 6 6
3 2 3 3 4 3 1 1 2 1 1 1 1 2 3 2 1 1 2 3 2 3 3 2 2 3 3 3 3 3 4 4 5 6 7 7 7 7 7 8 8 7 7 6 6 6 6 6 6
3 2 5 2 2 1 2 2 2 2 2 2 3 4 3 0 2 2 1 0 1 1 2 2 1 2 2 2 3 2 2 3 4 5 6 6 6 6 6 7 8 7 6 5 6 6 6 5 6
2 3 2 2 2 1 2 3 2 1 4 4 4 4 2 1 2 2 2 2 3 3 2 1 0 1 2 2 2 2 2 3 3 4 5 5 5 5 5 5 5 6 5 5 5 5 5 5 5
1 1 1 2 2 2 2 2 3 3 6 4 4 4 3 3 3 2 2 2 1 1 2 2 1 0 1 2 2 2 2 1 2 3 4 5 3 3 3 3 3 4 4 4 4 4 4 4 4
1 2 2 2 2 1 2 3 4 7 8 5 3 1 2 3 3 3 2 2 2 2 2 2 1 1 1 1 1 1 1 1 2 3 3 4 3 2 2 3 3 3 4 4 3 4 3 3 3
1 1 3 4 4 3 2 5 3 8 4 3 2 2 3 4 4 2 2 2 3 3 3 3 2 1 1 1 0 1 1 1 1 3 3 4 4 4 2 2 3 3 4 4 4 3 3 2 2
1 3 5 4 3 2 2 5 6 7 3 3 3 4 3 4 3 3 4 3 3 3 3 3 3 2 2 1 1 0 1 2 1 1 3 4 4 5 4 2 3 3 5 5 4 3 3 2 1
2 2 3 4 2 2 1 7 6 2 1 4 5 4 4 4 4 4 4 3 2 2 3 3 4 2 2 2 1 1 0 1 1 1 2 3 3 4 4 3 3 4 5 4 3 3 2 2 1
3 1 3 6 3 2 2 7 7 3 2 5 5 5 4 4 5 4 4 3 2 3 3 3 3 3 3 2 1 1 0 1 1 1 1 2 3 3 3 3 3 4 4 3 4 2 3 2 1
2 2 3 5 4 2 4 9 10 6 4 5 5 5 5 5 6 5 4 3 3 3 3 3 3 3 2 2 1 0 0 1 0 0 1 2 2 2 2 2 2 4 4 3 3 3 2 2 2
2 2 6 7 6 4 7 11 12 8 5 6 6 6 6 7 6 4 3 3 3 2 2 3 3 3 2 2 2 2 2 2 1 0 1 1 2 2 2 1 1 3 4 4 4 3 3 2 2
2 4 6 7 5 4 7 11 10 7 6 6 6 7 7 7 6 5 4 3 3 3 3 4 4 3 3 3 2 2 2 2 1 1 1 2 2 2 2 2 2 3 3 4 4 4 2 1 2
3 4 5 6 7 4 6 8 6 5 4 4 5 5 5 5 5 5 5 4 3 4 4 4 4 3 3 2 2 1 0 0 0 1 2 1 1 1 2 2 2 3 3 4 5 5 4 3 2
4 3 5 5 4 4 2 6 7 5 6 6 6 6 5 5 5 4 5 5 4 5 4 4 4 3 2 3 3 3 3 2 2 2 2 1 1 1 2 2 2 3 3 4 4 5 4 5 3
4 3 4 4 2 4 3 3 8 3 6 7 7 7 6 5 4 5 5 5 4 4 4 4 3 2 2 2 3 3 3 2 1 1 1 1 1 1 1 1 1 2 2 3 4 4 4 4 4
3 2 2 1 1 3 4 3 7 4 5 6 6 7 6 5 5 5 5 4 3 3 3 3 2 1 1 2 2 3 3 2 1 1 1 1 1 1 0 1 1 1 2 2 3 4 5 4 4
3 3 4 4 2 5 2 3 8 7 5 5 7 7 5 4 4 5 5 4 4 4 4 3 1 1 1 1 2 2 2 2 2 2 2 1 1 1 1 0 1 1 1 2 2 3 3 4 4
0 3 3 3 4 5 2 6 7 5 4 5 5 5 6 5 5 5 5 4 4 4 3 2 2 2 1 1 2 2 2 1 2 2 1 1 1 1 1 1 0 1 1 2 2 2 2 3 3
2 2 2 2 1 3 6 6 7 3 5 6 6 6 7 6 6 6 5 4 4 3 2 2 2 2 1 1 1 2 2 2 1 1 0 0 0 0 1 1 0 0 1 1 2 2 2 2 2
2 4 3 3 1 4 6 6 5 7 8 8 7 7 7 7 7 6 4 4 3 2 2 1 1 1 1 1 0 1 1 1 1 1 0 0 1 0 1 1 1 1 0 1 2 2 2 3 1
2 2 3 3 2 3 5 7 3 4 5 7 7 7 7 7 7 6 4 3 2 1 1 1 1 1 1 1 1 1 1 1 1 1 1 1 1 0 1 1 1 1 1 1 2 3 3 3 2
3 4 5 3 3 3 3 8 5 4 5 5 6 7 7 7 6 5 3 2 1 1 1 1 1 1 1 1 1 1 1 1 1 1 1 1 1 1 1 1 1 1 1 1 2 3 3 3 2
Wind_Direction
331 343 56 61 67 71 221 230 224 243 235 262 238 158 161 157 160 187 353 83 65 115 151 153 145 136 136 131 131 128 127 126 125 125 125 122 120 118 117 114 110 105 102 101 100 100 104 101 96
333 4 58 70 121 194 242 224 223 227 224 8 25 60 94 118 30 63 24 352 82 101 140 151 145 136 137 136 130 134 129 132 130 129 129 127 125 122 120 116 111 107 104 101 103 98 100 105 103
350 49 90 100 156 197 213 206 221 266 289 20 20 28 109 232 337 331 280 145 84 76 104 146 145 142 137 140 138 133 135 133 136 135 133 133 130 126 122 118 114 109 105 102 101 104 94 105 109
61 53 66 120 205 215 205 219 240 288 349 21 69 15 323 342 332 291 271 115 89 61 63 126 139 143 139 136 143 142 138 141 139 142 139 137 135 130 127 123 119 113 110 107 106 104 98 99 109
58 89 103 200 229 235 242 283 284 93 4 8 72 179 299 339 20 54 87 100 102 69 55 106 129 131 136 140 143 146 150 147 148 145 145 141 138 133 130 128 125 121 117 114 113 107 110 100 112
58 80 148 212 229 243 270 307 25 49 2 4 56 281 270 349 25 23 66 94 94 89 61 83 127 126 126 137 145 148 151 156 153 149 143 144 141 138 136 132 131 128 124 121 119 114 114 105 114
108 121 189 204 225 250 260 320 120 101 321 290 213 182 277 321 340 348 40 65 65 72 68 60 114 123 125 130 139 143 143 150 152 149 145 142 146 143 141 138 135 132 130 130 126 123 119 113 117
111 110 155 211 215 238 308 351 44 182 238 282 150 171 246 281 318 348 45 63 52 48 55 62 86 100 113 129 127 140 149 144 146 147 144 138 143 146 145 141 139 138 137 135 131 128 126 116 118
80 90 203 211 203 239 339 346 327 317 165 316 287 231 265 277 322 50 41 51 49 30 16 34 91 89 95 124 132 131 150 149 138 140 134 128 128 137 141 143 145 146 145 143 139 132 131 120 113
79 173 223 221 198 240 321 302 296 337 326 311 311 321 325 208 154 141 115 108 170 260 322 358 61 107 94 112 115 108 128 132 127 131 133 125 127 135 140 145 146 148 147 145 141 135 126 115 104
98 183 233 273 273 291 317 320 315 232 269 255 257 272 278 218 175 188 209 209 207 221 260 291 346 111 107 102 117 103 104 119 120 128 133 130 118 127 134 134 141 142 140 129 127 115 113 117 114
111 263 238 288 324 325 295 304 317 268 258 268 246 230 216 219 222 232 226 227 223 239 242 273 307 52 115 108 122 117 103 107 120 133 138 138 124 121 141 140 142 140 139 130 121 115 115 117 121
215 280 292 292 322 305 307 286 277 278 277 290 287 251 209 218 231 242 251 247 231 244 264 244 223 180 128 113 129 139 145 149 168 153 153 157 154 160 159 159 150 151 151 145 136 131 128 123 119
233 303 309 307 301 288 281 286 274 268 283 288 288 265 240 228 235 251 276 274 265 257 271 282 219 184 130 111 239 193 172 170 174 176 174 170 168 167 163 173 166 166 161 157 152 149 144 146 137
342 335 329 317 295 279 298 298 248 259 289 294 289 279 263 253 252 252 255 253 261 261 265 294 257 187 172 174 193 308 204 162 176 197 182 180 178 175 169 182 181 178 167 156 145 135 124 133 136
19 12 318 312 329 288 180 268 268 255 260 281 283 282 276 273 268 269 269 262 269 271 266 269 284 223 192 187 182 185 205 170 177 190 188 184 190 187 170 180 194 181 165 159 159 161 153 148 158
28 332 283 303 326 308 219 261 281 275 265 275 280 278 279 289 292 288 284 274 265 257 261 260 269 241 207 194 184 186 175 175 159 157 184 183 188 194 180 181 188 173 162 166 171 170 160 164 180
254 275 287 286 312 306 267 271 289 289 261 259 269 271 271 277 279 287 295 285 272 263 262 259 264 252 213 181 161 165 133 183 136 176 215 182 181 187 177 168 179 166 169 173 173 170 163 167 174
189 235 273 278 299 304 273 278 287 291 281 271 270 269 271 269 276 289 296 294 288 282 282 271 269 261 209 198 191 218 249 238 214 265 264 198 185 176 161 159 169 175 183 184 179 167 160 157 134
248 266 278 291 300 302 291 286 283 278 262 260 268 274 272 280 295 305 310 307 304 288 277 269 261 249 218 213 203 216 223 229 220 227 259 222 197 178 176 159 180 184 185 178 173 159 166 167 153
281 246 259 277 311 312 307 300 287 287 285 287 284 277 279 271 280 298 307 309 313 304 291 278 266 243 218 209 167 128 67 356 242 269 260 239 219 191 176 172 189 181 179 188 184 176 172 179 191
268 261 257 277 315 307 352 302 290 281 290 295 299 299 291 282 277 287 299 309 303 290 289 284 265 233 210 190 176 181 202 226 247 255 255 239 206 198 192 168 186 181 174 185 192 184 179 175 191
243 284 266 267 250 291 281 261 287 309 293 290 291 286 285 287 285 288 286 284 290 289 286 287 265 218 197 194 188 195 210 241 236 246 248 233 234 190 187 166 192 185 175 181 192 190 179 184 192
269 324 338 5 89 282 253 224 286 271 267 285 290 291 284 293 293 290 287 292 302 311 313 310 274 235 214 203 194 213 213 224 216 243 242 254 258 260 260 172 173 186 183 185 195 197 190 192 193
32 58 11 355 344 259 234 226 257 259 263 269 283 292 293 285 290 296 300 303 310 314 314 308 301 259 258 233 215 220 227 227 221 230 233 245 268 283 269 237 180 195 199 197 186 184 187 187 190
204 139 155 227 256 288 292 241 256 266 281 285 291 301 313 307 301 291 281 278 282 288 297 313 309 282 252 243 242 225 215 235 258 247 232 235 259 281 308 12 136 180 185 186 171 172 176 177 186
128 157 171 146 297 285 274 281 294 297 322 327 329 331 321 313 304 295 284 274 271 274 286 297 296 298 269 250 237 223 224 232 249 266 327 229 294 324 13 22 37 76 155 181 177 168 166 152 163
133 145 106 124 265 288 291 280 279 311 318 324 324 319 313 314 310 297 285 281 277 268 278 309 298 297 293 294 322 286 270 245 188 171 121 317 307 14 55 24 37 55 67 145 159 143 145 134 150
131 122 130 141 175 202 287 283 254 281 301 303 298 300 301 303 302 299 284 280 282 283 277 319 349 349 328 334 338 325 290 89 88 75 34 350 322 24 57 54 86 94 90 100 133 135 138 136 137
176 177 158 165 237 202 229 275 292 296 304 304 301 309 312 311 312 311 311 308 310 309 320 333 353 334 326 341 345 340 29 67 70 51 38 16 345 21 44 84 97 99 101 111 133 136 132 145 149
Height
1495 1496 1498 1500 1504 1514 1514 1510 1507 1506 1504 1503 1503 1503 1503 1505 1508 1512 1508 1506 1506 1507 1509 1511 1512 1513 1515 1516 1517 1518 1519 1520 1521 1521 1522 1523 1523 1524 1525 1526 1526 1527 1527 1528 1528 1529 1529 1530 1530
1494 1496 1499 1499 1508 1516 1513 1507 1506 1504 1503 1502 1502 1502 1502 1503 1504 1505 1504 1505 1506 1508 1509 1510 1512 1513 1514 1515 1516 1517 1518 1519 1520 1521 1521 1522 1523 1524 1524 1525 1526 1526 1527 1527 1528 1528 1529 1529 1530
1494 1495 1498 1501 1509 1510 1507 1504 1503 1502 1502 1502 1502 1502 1503 1503 1504 1504 1505 1505 1506 1508 1509 1510 1512 1513 1514 1515 1516 1517 1518 1519 1519 1520 1521 1521 1522 1523 1524 1524 1525 1526 1526 1527 1527 1528 1528 1529 1529
1494 1496 1498 1504 1505 1504 1503 1502 1502 1501 1501 1501 1502 1502 1503 1504 1504 1504 1504 1505 1506 1507 1508 1510 1511 1512 1513 1514 1515 1516 1517 1518 1519 1519 1520 1521 1521 1522 1523 1524 1524 1525 1525 1526 1527 1527 1528 1528 1529
1493 1494 1501 1505 1503 1502 1502 1501 1501 1501 1501 1502 1502 1502 1502 1503 1502 1503 1503 1504 1505 1506 1507 1509 1510 1511 1512 1513 1514 1515 1516 1517 1518 1519 1519 1520 1521 1521 1522 1523 1523 1524 1525 1525 1526 1526 1527 1527 1528
1493 1495 1504 1505 1502 1501 1501 1501 1501 1501 1502 1502 1502 1502 1501 1502 1501 1502 1503 1504 1505 1505 1507 1507 1509 1510 1511 1512 1513 1514 1515 1516 1517 1517 1518 1519 1520 1520 1521 1522 1522 1523 1524 1524 1525 1525 1526 1526 1527
1494 1498 1502 1502 1503 1502 1501 1500 1501 1501 1501 1502 1502 1502 1500 1501 1501 1501 1502 1503 1504 1505 1506 1506 1508 1509 1510 1511 1512 1513 1513 1514 1515 1516 1517 1518 1518 1519 1520 1520 1521 1522 1523 1523 1524 1524 1525 1525 1526
1494 1499 1502 1504 1503 1501 1501 1500 1500 1500 1500 1501 1501 1501 1500 1500 1500 1501 1501 1502 1503 1504 1505 1506 1506 1507 1508 1509 1510 1511 1512 1513 1513 1514 1515 1516 1517 1517 1518 1519 1520 1520 1521 1522 1522 1523 1524 1524 1524
1495 1502 1504 1503 1502 1501 1500 1500 1500 1500 1500 1500 1499 1499 1499 1499 1499 1499 1499 1500 1501 1502 1503 1503 1504 1505 1506 1507 1508 1509 1510 1511 1512 1512 1513 1514 1514 1515 1516 1517 1518 1519 1519 1520 1521 1522 1522 1523 1523
1496 1503 1501 1501 1500 1500 1500 1500 1500 1499 1498 1498 1497 1497 1497 1497 1497 1497 1497 1497 1498 1500 1501 1502 1502 1503 1503 1505 1506 1507 1508 1509 1509 1510 1511 1512 1512 1513 1514 1515 1516 1517 1518 1519 1519 1520 1521 1521 1521
1497 1501 1500 1499 1499 1499 1499 1500 1500 1499 1498 1497 1496 1495 1495 1496 1496 1496 1496 1496 1497 1498 1499 1500 1500 1500 1501 1502 1503 1504 1505 1506 1507 1508 1509 1510 1510 1511 1512 1513 1514 1514 1515 1516 1517 1518 1519 1519 1519
1500 1500 1499 1499 1499 1499 1499 1499 1499 1498 1497 1496 1495 1495 1494 1494 1494 1494 1494 1494 1495 1496 1497 1497 1498 1498 1499 1499 1500 1501 1503 1504 1504 1505 1506 1507 1507 1508 1510 1511 1511 1512 1513 1514 1515 1516 1516 1517 1518
1500 1499 1498 1498 1498 1498 1498 1498 1498 1495 1494 1494 1494 1493 1492 1492 1492 1492 1493 1493 1493 1493 1494 1495 1495 1496 1496 1496 1497 1499 1500 1501 1502 1503 1504 1505 1505 1506 1507 1508 1509 1510 1511 1512 1513 1513 1514 1515 1516
1500 1499 1498 1497 1497 1497 1497 1496 1496 1491 1492 1492 1492 1491 1491 1491 1491 1491 1490 1490 1490 1491 1491 1492 1493 1493 1493 1493 1494 1495 1497 1498 1499 1500 1501 1502 1503 1503 1504 1505 1506 1507 1509 1510 1510 1511 1512 1513 1514
1500 1500 1498 1497 1496 1496 1496 1494 1492 1489 1491 1490 1489 1489 1489 1489 1489 1489 1488 1488 1488 1488 1489 1489 1489 1490 1490 1491 1491 1492 1493 1495 1496 1497 1497 1498 1500 1501 1501 1502 1504 1505 1506 1507 1508 1509 1509 1510 1511
1501 1502 1502 1498 1496 1496 1499 1494 1489 1489 1488 1487 1487 1487 1487 1487 1487 1487 1486 1486 1486 1486 1486 1486 1486 1487 1487 1488 1488 1489 1490 1491 1492 1494 1494 1495 1496 1497 1498 1499 1500 1502 1503 1504 1505 1506 1506 1507 1508
1506 1507 1505 1500 1497 1496 1497 1493 1487 1487 1487 1486 1485 1484 1484 1484 1484 1484 1484 1483 1483 1482 1483 1482 1483 1483 1484 1485 1485 1486 1486 1487 1488 1490 1491 1492 1493 1494 1495 1495 1497 1498 1499 1501 1502 1503 1504 1504 1505
1508 1508 1506 1504 1499 1497 1496 1492 1486 1484 1484 1483 1483 1482 1481 1481 1481 1481 1480 1480 1479 1479 1479 1479 1479 1480 1480 1481 1482 1482 1483 1484 1485 1486 1487 1488 1489 1490 1491 1492 1493 1494 1496 1497 1498 1499 1501 1502 1502
1506 1507 1507 1503 1499 1498 1494 1490 1485 1482 1481 1480 1479 1478 1478 1477 1478 1478 1478 1477 1476 1476 1476 1476 1476 1476 1477 1477 1477 1478 1479 1480 1482 1483 1483 1485 1486 1487 1487 1488 1489 1491 1492 1493 1494 1496 1497 1498 1499
1506 1507 1506 1502 1498 1497 1494 1488 1481 1479 1478 1477 1476 1475 1474 1474 1473 1473 1474 1473 1472 1472 1473 1473 1473 1472 1473 1474 1474 1475 1476 1477 1477 1479 1480 1481 1482 1483 1484 1485 1486 1487 1488 1489 1490 1492 1493 1494 1496
1506 1507 1505 1504 1500 1497 1495 1485 1479 1475 1475 1474 1473 1472 1471 1471 1470 1470 1470 1470 1469 1469 1469 1469 1469 1469 1470 1471 1471 1471 1472 1472 1474 1474 1475 1476 1477 1479 1480 1481 1482 1483 1484 1485 1486 1487 1489 1490 1492
1505 1502 1503 1502 1504 1503 1500 1493 1479 1476 1474 1472 1470 1469 1468 1468 1467 1467 1467 1466 1466 1466 1466 1465 1465 1466 1467 1468 1468 1467 1467 1468 1469 1470 1471 1472 1473 1474 1476 1476 1477 1479 1480 1481 1482 1484 1485 1487 1488
1504 1501 1502 1502 1504 1505 1501 1501 1482 1477 1474 1470 1468 1466 1465 1465 1465 1464 1464 1464 1464 1464 1463 1462 1462 1462 1463 1464 1464 1465 1465 1465 1466 1467 1467 1468 1469 1470 1472 1473 1473 1474 1475 1477 1479 1480 1481 1483 1484
1502 1502 1502 1504 1505 1505 1499 1500 1485 1478 1473 1468 1466 1464 1463 1463 1462 1462 1462 1461 1460 1460 1459 1459 1458 1458 1459 1460 1461 1462 1461 1462 1463 1463 1464 1464 1465 1466 1468 1469 1470 1471 1472 1473 1475 1476 1477 1479 1481
1503 1507 1510 1508 1511 1503 1496 1495 1484 1472 1469 1467 1465 1463 1461 1460 1459 1458 1458 1457 1457 1456 1456 1456 1455 1455 1456 1457 1457 1458 1458 1459 1460 1460 1461 1461 1462 1463 1464 1465 1466 1467 1469 1470 1471 1472 1474 1475 1477
1507 1508 1513 1512 1509 1502 1496 1492 1477 1469 1467 1465 1463 1461 1459 1458 1457 1456 1456 1455 1455 1454 1454 1453 1453 1453 1453 1454 1454 1455 1456 1457 1457 1458 1458 1459 1459 1460 1461 1461 1463 1464 1465 1467 1468 1469 1470 1472 1473
1507 1511 1510 1515 1517 1512 1498 1488 1476 1468 1465 1463 1460 1458 1457 1456 1455 1454 1453 1453 1453 1452 1451 1451 1451 1451 1451 1451 1451 1452 1453 1453 1453 1454 1455 1456 1457 1457 1458 1458 1460 1461 1462 1463 1464 1465 1466 1468 1470
1506 1509 1514 1516 1513 1506 1496 1489 1479 1469 1467 1464 1461 1458 1456 1455 1453 1451 1451 1450 1450 1450 1450 1450 1450 1450 1449 1449 1449 1450 1450 1450 1451 1452 1452 1454 1454 1454 1455 1456 1457 1458 1459 1460 1461 1462 1463 1465 1467
1508 1510 1512 1516 1515 1512 1503 1486 1472 1469 1467 1465 1462 1459 1456 1454 1452 1449 1449 1449 1448 1448 1448 1448 1447 1448 1448 1448 1447 1447 1448 1448 1448 1450 1450 1451 1451 1451 1452 1453 1454 1454 1456 1457 1458 1459 1460 1462 1464
1506 1507 1510 1511 1513 1516 1513 1491 1470 1469 1466 1464 1461 1458 1455 1453 1451 1448 1447 1447 1446 1446 1446 1446 1446 1446 1446 1445 1445 1445 1446 1446 1446 1447 1447 1448 1448 1449 1449 1450 1451 1452 1453 1454 1455 1456 1457 1459 1461